| time (UTC) | temp C | wind direction | speed KPH | gust KPH | rain 1hr cm | rain 24hr cm | rain mn cm | humidity % | barometer mb |
| 20260507142718 | 13 | 330 | 8.0 | 17.7 | 0.00 | 0.00 | 0.00 | 49 | 1009.6 |
| 20260507142219 | 13 | 323 | 8.0 | 17.7 | 0.00 | 0.00 | 0.00 | 49 | 1009.4 |
| 20260507141718 | 13 | 320 | 6.4 | 16.1 | 0.00 | 0.00 | 0.00 | 50 | 1009.3 |
| 20260507141218 | 13 | 320 | 6.4 | 16.1 | 0.00 | 0.00 | 0.00 | 50 | 1009.4 |
| 20260507140223 | 13 | 331 | 6.4 | 14.5 | 0.00 | 0.00 | 0.00 | 52 | 1009.4 |
| 20260507135715 | 12 | 310 | 8.0 | 17.7 | 0.00 | 0.00 | 0.00 | 52 | 1009.3 |
| 20260507135215 | 12 | 328 | 9.7 | 17.7 | 0.00 | 0.00 | 0.00 | 52 | 1009.4 |
| 20260507134717 | 12 | 316 | 9.7 | 17.7 | 0.00 | 0.00 | 0.00 | 52 | 1009.3 |
| 20260507133719 | 12 | 316 | 9.7 | 17.7 | 0.00 | 0.00 | 0.00 | 54 | 1009.1 |
| 20260507133217 | 12 | 312 | 6.4 | 14.5 | 0.00 | 0.00 | 0.00 | 54 | 1009.1 |
| 20260507132216 | 11 | 305 | 6.4 | 14.5 | 0.00 | 0.00 | 0.00 | 56 | 1009.4 |
| 20260507131718 | 11 | 330 | 6.4 | 14.5 | 0.00 | 0.00 | 0.00 | 57 | 1009.2 |
| 20260507131216 | 11 | 334 | 6.4 | 14.5 | 0.00 | 0.00 | 0.00 | 59 | 1009.1 |
| 20260507130210 | 10 | 326 | 6.4 | 14.5 | 0.00 | 0.00 | 0.00 | 61 | 1008.8 |
| 20260507125711 | 10 | 339 | 4.8 | 11.3 | 0.00 | 0.00 | 0.00 | 62 | 1009.1 |
| 20260507125211 | 10 | 318 | 3.2 | 9.7 | 0.00 | 0.00 | 0.00 | 63 | 1009.2 |
| 20260507124213 | 9 | 339 | 3.2 | 9.7 | 0.00 | 0.00 | 0.00 | 64 | 1009.1 |
| 20260507123711 | 9 | 336 | 3.2 | 9.7 | 0.00 | 0.00 | 0.00 | 65 | 1009.1 |
| 20260507123208 | 9 | 314 | 1.6 | 8.0 | 0.00 | 0.00 | 0.00 | 65 | 1009.2 |
| 20260507122708 | 9 | 297 | 1.6 | 8.0 | 0.00 | 0.00 | 0.00 | 65 | 1009.2 |
| 20260507121209 | 10 | 308 | 3.2 | 6.4 | 0.00 | 0.00 | 0.00 | 65 | 1008.8 |
| 20260507120707 | 10 | 309 | 3.2 | 6.4 | 0.00 | 0.00 | 0.00 | 65 | 1008.8 |
| 20260507120211 | 10 | 340 | 1.6 | 6.4 | 0.00 | 0.00 | 0.00 | 65 | 1008.8 |
| 20260507115654 | 10 | 302 | 1.6 | 4.8 | 0.00 | 0.00 | 0.00 | 64 | 1009.0 |
| 20260507115157 | 11 | 298 | 3.2 | 6.4 | 0.00 | 0.00 | 0.00 | 64 | 1008.8 |
| 20260507114155 | 11 | 299 | 4.8 | 11.3 | 0.00 | 0.00 | 0.00 | 63 | 1008.5 |
| 20260507113656 | 11 | 289 | 4.8 | 14.5 | 0.00 | 0.00 | 0.00 | 63 | 1008.4 |
| 20260507113156 | 11 | 292 | 6.4 | 14.5 | 0.00 | 0.00 | 0.00 | 62 | 1008.3 |
| 20260507112654 | 11 | 300 | 4.8 | 12.9 | 0.00 | 0.00 | 0.00 | 62 | 1008.1 |
| 20260507112156 | 11 | 311 | 4.8 | 12.9 | 0.00 | 0.00 | 0.00 | 63 | 1008.0 |
| 20260507111659 | 11 | 310 | 4.8 | 9.7 | 0.00 | 0.00 | 0.00 | 63 | 1008.0 |
| 20260507111156 | 11 | 300 | 4.8 | 9.7 | 0.00 | 0.00 | 0.00 | 63 | 1007.9 |
| 20260507110656 | 11 | 291 | 3.2 | 9.7 | 0.00 | 0.00 | 0.00 | 64 | 1008.0 |
| 20260507110157 | 11 | 296 | 3.2 | 8.0 | 0.00 | 0.00 | 0.00 | 64 | 1008.1 |
| 20260507105156 | 11 | 302 | 3.2 | 9.7 | 0.00 | 0.00 | 0.00 | 64 | 1008.0 |
| 20260507104658 | 11 | 303 | 3.2 | 8.0 | 0.00 | 0.00 | 0.00 | 64 | 1008.0 |
| 20260507104154 | 11 | 300 | 3.2 | 8.0 | 0.00 | 0.00 | 0.00 | 64 | 1007.9 |
| 20260507103654 | 11 | 294 | 3.2 | 6.4 | 0.00 | 0.00 | 0.00 | 64 | 1007.9 |
| 20260507103154 | 11 | 270 | 3.2 | 6.4 | 0.00 | 0.00 | 0.00 | 64 | 1007.9 |
| 20260507102159 | 11 | 295 | 3.2 | 6.4 | 0.00 | 0.00 | 0.00 | 64 | 1007.9 |
| 20260507101654 | 11 | 295 | 3.2 | 6.4 | 0.00 | 0.00 | 0.00 | 64 | 1007.9 |
| 20260507101154 | 11 | 326 | 1.6 | 6.4 | 0.00 | 0.00 | 0.00 | 64 | 1007.9 |
| 20260507100653 | 11 | 287 | 1.6 | 6.4 | 0.00 | 0.00 | 0.00 | 64 | 1007.9 |
| 20260507100154 | 11 | 313 | 1.6 | 6.4 | 0.00 | 0.00 | 0.00 | 64 | 1007.8 |
| 20260507095654 | 11 | 279 | 1.6 | 4.8 | 0.00 | 0.00 | 0.00 | 64 | 1007.8 |
| 20260507095202 | 11 | 274 | 3.2 | 6.4 | 0.00 | 0.00 | 0.00 | 64 | 1007.9 |
| 20260507094656 | 11 | 305 | 3.2 | 6.4 | 0.00 | 0.00 | 0.00 | 63 | 1008.0 |
| 20260507094154 | 11 | 264 | 3.2 | 8.0 | 0.00 | 0.00 | 0.00 | 63 | 1008.0 |
| 20260507093655 | 11 | 246 | 3.2 | 8.0 | 0.00 | 0.00 | 0.00 | 62 | 1008.0 |
| 20260507093153 | 11 | 232 | 3.2 | 6.4 | 0.00 | 0.00 | 0.00 | 62 | 1007.9 |
| 20260507092654 | 11 | 245 | 3.2 | 8.0 | 0.00 | 0.00 | 0.00 | 62 | 1007.8 |
| 20260507092151 | 11 | 289 | 3.2 | 8.0 | 0.00 | 0.00 | 0.00 | 62 | 1007.8 |
| 20260507090658 | 11 | 221 | 3.2 | 6.4 | 0.00 | 0.00 | 0.00 | 63 | 1007.9 |
| 20260507090152 | 11 | 209 | 3.2 | 6.4 | 0.00 | 0.00 | 0.00 | 63 | 1007.8 |
| 20260507085736 | 11 | 234 | 3.2 | 8.0 | 0.00 | 0.00 | 0.00 | 63 | 1007.8 |
| 20260507085151 | 11 | 216 | 3.2 | 11.3 | 0.00 | 0.00 | 0.00 | 62 | 1007.8 |
| 20260507084652 | 11 | 207 | 4.8 | 11.3 | 0.00 | 0.00 | 0.00 | 62 | 1007.8 |
| 20260507084149 | 11 | 260 | 4.8 | 11.3 | 0.00 | 0.00 | 0.00 | 62 | 1007.7 |
| 20260507083653 | 12 | 269 | 3.2 | 9.7 | 0.00 | 0.00 | 0.00 | 61 | 1007.7 |
| 20260507081648 | 12 | 235 | 6.4 | 11.3 | 0.00 | 0.00 | 0.00 | 61 | 1007.7 |
| 20260507081148 | 12 | 218 | 6.4 | 11.3 | 0.00 | 0.00 | 0.00 | 61 | 1007.7 |
| 20260507075648 | 12 | 223 | 6.4 | 12.9 | 0.00 | 0.00 | 0.00 | 62 | 1007.8 |
| 20260507075149 | 12 | 232 | 6.4 | 14.5 | 0.00 | 0.00 | 0.00 | 62 | 1007.7 |
| 20260507074649 | 12 | 222 | 8.0 | 14.5 | 0.00 | 0.00 | 0.00 | 62 | 1007.7 |
| 20260507074153 | 12 | 228 | 8.0 | 14.5 | 0.00 | 0.00 | 0.00 | 62 | 1007.8 |
| 20260507073647 | 12 | 228 | 6.4 | 14.5 | 0.00 | 0.00 | 0.00 | 62 | 1007.9 |
| 20260507073147 | 12 | 231 | 6.4 | 14.5 | 0.00 | 0.00 | 0.00 | 63 | 1007.9 |
| 20260507072645 | 12 | 237 | 6.4 | 14.5 | 0.00 | 0.00 | 0.00 | 63 | 1007.9 |
| 20260507072146 | 12 | 167 | 6.4 | 12.9 | 0.00 | 0.00 | 0.00 | 62 | 1007.9 |
| 20260507071651 | 12 | 209 | 4.8 | 9.7 | 0.00 | 0.00 | 0.00 | 63 | 1007.9 |
| 20260507071146 | 12 | 206 | 4.8 | 11.3 | 0.00 | 0.00 | 0.00 | 63 | 1007.8 |
| 20260507070647 | 12 | 218 | 4.8 | 11.3 | 0.00 | 0.00 | 0.00 | 62 | 1007.9 |
| 20260507070147 | 12 | 214 | 4.8 | 9.7 | 0.00 | 0.00 | 0.00 | 63 | 1008.0 |
| 20260507065646 | 12 | 180 | 4.8 | 9.7 | 0.00 | 0.00 | 0.00 | 63 | 1007.9 |
| 20260507065151 | 12 | 219 | 3.2 | 9.7 | 0.00 | 0.00 | 0.00 | 62 | 1008.0 |
| 20260507064647 | 12 | 190 | 3.2 | 6.4 | 0.00 | 0.00 | 0.00 | 62 | 1007.9 |
| 20260507064146 | 12 | 232 | 3.2 | 6.4 | 0.00 | 0.00 | 0.00 | 61 | 1007.8 |
| 20260507063647 | 12 | 223 | 3.2 | 6.4 | 0.00 | 0.00 | 0.00 | 63 | 1007.9 |
| 20260507063146 | 12 | 238 | 3.2 | 4.8 | 0.00 | 0.00 | 0.00 | 63 | 1007.9 |
| 20260507061648 | 12 | 328 | 3.2 | 8.0 | 0.00 | 0.00 | 0.00 | 61 | 1008.4 |
| 20260507061143 | 13 | 347 | 3.2 | 6.4 | 0.00 | 0.00 | 0.00 | 60 | 1008.3 |
| 20260507060145 | 13 | 284 | 3.2 | 6.4 | 0.00 | 0.00 | 0.00 | 59 | 1008.1 |
| 20260507055645 | 13 | 297 | 3.2 | 6.4 | 0.00 | 0.00 | 0.00 | 59 | 1008.1 |
| 20260507055148 | 12 | 324 | 3.2 | 6.4 | 0.00 | 0.00 | 0.00 | 59 | 1008.0 |
| 20260507054144 | 12 | 298 | 1.6 | 6.4 | 0.00 | 0.00 | 0.00 | 59 | 1007.8 |
| 20260507053643 | 12 | 340 | 3.2 | 8.0 | 0.00 | 0.00 | 0.00 | 60 | 1007.9 |
| 20260507052142 | 12 | 308 | 3.2 | 6.4 | 0.00 | 0.00 | 0.00 | 61 | 1008.2 |
| 20260507051642 | 12 | 291 | 1.6 | 6.4 | 0.00 | 0.00 | 0.00 | 60 | 1008.2 |
| 20260507051143 | 12 | 328 | 1.6 | 3.2 | 0.00 | 0.00 | 0.00 | 59 | 1008.3 |
| 20260507050142 | 12 | 0 | 1.6 | 4.8 | 0.00 | 0.00 | 0.00 | 59 | 1008.2 |
| 20260507045639 | 12 | 346 | 1.6 | 3.2 | 0.00 | 0.00 | 0.00 | 58 | 1008.2 |
| 20260507044137 | 13 | 13 | 1.6 | 4.8 | 0.00 | 0.00 | 0.00 | 57 | 1007.9 |
| 20260507043636 | 13 | 357 | 1.6 | 4.8 | 0.00 | 0.00 | 0.00 | 57 | 1007.9 |
| 20260507043137 | 13 | 28 | 1.6 | 3.2 | 0.00 | 0.00 | 0.00 | 56 | 1008.0 |
| 20260507042137 | 13 | 322 | 1.6 | 4.8 | 0.00 | 0.00 | 0.00 | 56 | 1007.8 |
| 20260507041636 | 13 | 309 | 1.6 | 4.8 | 0.00 | 0.00 | 0.00 | 55 | 1007.8 |
| 20260507041137 | 14 | 0 | 3.2 | 4.8 | 0.00 | 0.00 | 0.00 | 55 | 1007.9 |
| 20260507040643 | 14 | 268 | 3.2 | 8.0 | 0.00 | 0.00 | 0.00 | 55 | 1007.8 |
| 20260507035634 | 14 | 240 | 3.2 | 11.3 | 0.00 | 0.00 | 0.00 | 53 | 1007.7 |
| 20260507034141 | 15 | 233 | 4.8 | 9.7 | 0.00 | 0.00 | 0.00 | 49 | 1007.1 |
| 20260507033635 | 15 | 212 | 4.8 | 12.9 | 0.00 | 0.00 | 0.00 | 49 | 1006.9 |
| 20260507033137 | 15 | 158 | 6.4 | 12.9 | 0.00 | 0.00 | 0.00 | 49 | 1006.9 |
| 20260507032635 | 16 | 145 | 6.4 | 11.3 | 0.00 | 0.00 | 0.00 | 47 | 1007.2 |
| 20260507032135 | 16 | 138 | 4.8 | 11.3 | 0.00 | 0.00 | 0.00 | 42 | 1006.8 |
| 20260507031637 | 16 | 222 | 3.2 | 9.7 | 0.00 | 0.00 | 0.00 | 40 | 1007.7 |
| 20260507031137 | 16 | 288 | 4.8 | 9.7 | 0.00 | 0.00 | 0.00 | 38 | 1007.7 |
| 20260507030132 | 16 | 310 | 3.2 | 12.9 | 0.00 | 0.00 | 0.00 | 37 | 1007.5 |
| 20260507025630 | 16 | 216 | 4.8 | 14.5 | 0.00 | 0.00 | 0.00 | 37 | 1007.3 |
| 20260507025131 | 16 | 139 | 6.4 | 14.5 | 0.00 | 0.00 | 0.00 | 36 | 1007.2 |
| 20260507024634 | 16 | 225 | 6.4 | 17.7 | 0.00 | 0.00 | 0.00 | 37 | 1007.2 |
| 20260507024130 | 16 | 281 | 8.0 | 24.1 | 0.00 | 0.00 | 0.00 | 38 | 1007.3 |
| 20260507023630 | 16 | 226 | 8.0 | 24.1 | 0.00 | 0.00 | 0.00 | 38 | 1007.1 |
| 20260507023132 | 16 | 253 | 4.8 | 12.9 | 0.00 | 0.00 | 0.00 | 36 | 1007.5 |
| 20260507022630 | 16 | 152 | 4.8 | 9.7 | 0.00 | 0.00 | 0.00 | 38 | 1007.6 |
| 20260507021627 | 17 | 144 | 3.2 | 11.3 | 0.00 | 0.00 | 0.00 | 36 | 1008.5 |
| 20260507021126 | 17 | 211 | 3.2 | 11.3 | 0.00 | 0.00 | 0.00 | 32 | 1007.6 |
| 20260507020624 | 17 | 117 | 4.8 | 11.3 | 0.00 | 0.00 | 0.00 | 31 | 1007.3 |
| 20260507020126 | 17 | 174 | 3.2 | 11.3 | 0.00 | 0.00 | 0.00 | 31 | 1007.0 |
| 20260507015624 | 17 | 164 | 3.2 | 9.7 | 0.00 | 0.00 | 0.00 | 31 | 1006.9 |
| 20260507015129 | 17 | 208 | 4.8 | 14.5 | 0.00 | 0.00 | 0.00 | 31 | 1006.8 |
| 20260507014625 | 17 | 147 | 6.4 | 16.1 | 0.00 | 0.00 | 0.00 | 31 | 1006.5 |
| 20260507014124 | 17 | 171 | 6.4 | 16.1 | 0.00 | 0.00 | 0.00 | 31 | 1006.4 |
| 20260507013624 | 17 | 153 | 6.4 | 14.5 | 0.00 | 0.00 | 0.00 | 31 | 1006.3 |
| 20260507013125 | 18 | 143 | 8.0 | 14.5 | 0.00 | 0.00 | 0.00 | 30 | 1006.3 |
| 20260507012626 | 18 | 132 | 8.0 | 14.5 | 0.00 | 0.00 | 0.00 | 30 | 1006.2 |
| 20260507011623 | 18 | 131 | 4.8 | 9.7 | 0.00 | 0.00 | 0.00 | 30 | 1006.3 |
| 20260507011122 | 18 | 138 | 6.4 | 11.3 | 0.00 | 0.00 | 0.00 | 30 | 1006.4 |
| 20260507010622 | 18 | 146 | 6.4 | 11.3 | 0.00 | 0.00 | 0.00 | 30 | 1006.3 |
| 20260507010125 | 18 | 103 | 6.4 | 11.3 | 0.00 | 0.00 | 0.00 | 30 | 1006.2 |
| 20260507005623 | 18 | 116 | 6.4 | 14.5 | 0.00 | 0.00 | 0.00 | 30 | 1006.2 |
| 20260507005123 | 18 | 132 | 6.4 | 14.5 | 0.00 | 0.00 | 0.00 | 29 | 1006.2 |
| 20260507004124 | 19 | 184 | 4.8 | 11.3 | 0.00 | 0.00 | 0.00 | 29 | 1006.1 |
| 20260507003627 | 19 | 67 | 4.8 | 11.3 | 0.00 | 0.00 | 0.00 | 29 | 1006.1 |
| 20260507003123 | 19 | 152 | 4.8 | 11.3 | 0.00 | 0.00 | 0.00 | 29 | 1006.0 |
| 20260507002623 | 19 | 84 | 4.8 | 12.9 | 0.00 | 0.00 | 0.00 | 29 | 1005.8 |
| 20260507002122 | 19 | 146 | 6.4 | 12.9 | 0.00 | 0.00 | 0.00 | 29 | 1005.8 |
| 20260507001126 | 20 | 96 | 4.8 | 11.3 | 0.00 | 0.00 | 0.00 | 29 | 1005.8 |
| 20260507000622 | 20 | 71 | 4.8 | 11.3 | 0.00 | 0.00 | 0.00 | 28 | 1006.0 |
| 20260507000122 | 20 | 78 | 4.8 | 11.3 | 0.00 | 0.00 | 0.00 | 28 | 1005.8 |
| 20260506235622 | 20 | 120 | 4.8 | 11.3 | 0.00 | 0.00 | 0.00 | 28 | 1005.8 |
| 20260506234625 | 20 | 54 | 3.2 | 14.5 | 0.00 | 0.00 | 0.00 | 28 | 1005.8 |
| 20260506234123 | 20 | 58 | 3.2 | 14.5 | 0.00 | 0.00 | 0.00 | 28 | 1005.8 |
| 20260506233618 | 20 | 42 | 4.8 | 14.5 | 0.00 | 0.00 | 0.00 | 28 | 1005.7 |
| 20260506233120 | 20 | 76 | 6.4 | 17.7 | 0.00 | 0.00 | 0.00 | 29 | 1005.7 |
| 20260506232620 | 20 | 111 | 6.4 | 17.7 | 0.00 | 0.00 | 0.00 | 28 | 1006.0 |
| 20260506232120 | 20 | 107 | 6.4 | 17.7 | 0.00 | 0.00 | 0.00 | 28 | 1005.8 |
| 20260506231626 | 20 | 135 | 4.8 | 12.9 | 0.00 | 0.00 | 0.00 | 27 | 1005.7 |
| 20260506231121 | 20 | 98 | 4.8 | 12.9 | 0.00 | 0.00 | 0.00 | 28 | 1005.7 |
| 20260506230621 | 20 | 129 | 4.8 | 14.5 | 0.00 | 0.00 | 0.00 | 27 | 1005.6 |
| 20260506230120 | 20 | 64 | 6.4 | 14.5 | 0.00 | 0.00 | 0.00 | 28 | 1005.6 |
| 20260506225620 | 20 | 93 | 6.4 | 14.5 | 0.00 | 0.00 | 0.00 | 28 | 1005.5 |
| 20260506224621 | 20 | 102 | 6.4 | 14.5 | 0.00 | 0.00 | 0.00 | 29 | 1005.8 |
| 20260506224121 | 19 | 141 | 4.8 | 16.1 | 0.00 | 0.00 | 0.00 | 29 | 1005.8 |
| 20260506223118 | 19 | 145 | 6.4 | 17.7 | 0.00 | 0.00 | 0.00 | 29 | 1005.8 |
| 20260506222617 | 19 | 124 | 6.4 | 16.1 | 0.00 | 0.00 | 0.00 | 29 | 1006.1 |
| 20260506222118 | 19 | 179 | 6.4 | 16.1 | 0.00 | 0.00 | 0.00 | 28 | 1006.1 |
| 20260506221619 | 19 | 139 | 4.8 | 16.1 | 0.00 | 0.00 | 0.00 | 28 | 1006.3 |
| 20260506221117 | 19 | 155 | 3.2 | 14.5 | 0.00 | 0.00 | 0.00 | 28 | 1006.4 |
| 20260506220617 | 19 | 161 | 3.2 | 14.5 | 0.00 | 0.00 | 0.00 | 28 | 1006.5 |
| 20260506220118 | 19 | 161 | 3.2 | 14.5 | 0.00 | 0.00 | 0.00 | 27 | 1006.6 |
| 20260506215618 | 19 | 0 | 3.2 | 9.7 | 0.00 | 0.00 | 0.00 | 28 | 1006.8 |
| 20260506215119 | 19 | 132 | 4.8 | 16.1 | 0.00 | 0.00 | 0.00 | 28 | 1006.8 |
| 20260506214616 | 19 | 128 | 4.8 | 16.1 | 0.00 | 0.00 | 0.00 | 28 | 1006.7 |
| 20260506214116 | 19 | 109 | 4.8 | 14.5 | 0.00 | 0.00 | 0.00 | 28 | 1006.8 |
| 20260506212615 | 20 | 128 | 6.4 | 20.9 | 0.00 | 0.00 | 0.00 | 28 | 1006.6 |
| 20260506212119 | 20 | 167 | 6.4 | 16.1 | 0.00 | 0.00 | 0.00 | 27 | 1006.4 |
| 20260506211614 | 19 | 82 | 6.4 | 17.7 | 0.00 | 0.00 | 0.00 | 28 | 1006.5 |
| 20260506211115 | 19 | 177 | 6.4 | 17.7 | 0.00 | 0.00 | 0.00 | 28 | 1006.4 |
| 20260506210615 | 19 | 154 | 8.0 | 19.3 | 0.00 | 0.00 | 0.00 | 27 | 1006.4 |
| 20260506210115 | 19 | 100 | 6.4 | 19.3 | 0.00 | 0.00 | 0.00 | 28 | 1006.9 |
| 20260506205619 | 19 | 144 | 8.0 | 20.9 | 0.00 | 0.00 | 0.00 | 28 | 1006.6 |
| 20260506205116 | 19 | 127 | 8.0 | 20.9 | 0.00 | 0.00 | 0.00 | 29 | 1006.7 |
| 20260506204616 | 18 | 170 | 6.4 | 19.3 | 0.00 | 0.00 | 0.00 | 29 | 1006.6 |
| 20260506204112 | 18 | 152 | 8.0 | 24.1 | 0.00 | 0.00 | 0.00 | 29 | 1006.7 |
| 20260506203613 | 18 | 107 | 9.7 | 24.1 | 0.00 | 0.00 | 0.00 | 29 | 1007.1 |
| 20260506202619 | 18 | 138 | 8.0 | 20.9 | 0.00 | 0.00 | 0.00 | 29 | 1006.6 |
| 20260506202112 | 18 | 113 | 9.7 | 20.9 | 0.00 | 0.00 | 0.00 | 30 | 1007.0 |
| 20260506201613 | 18 | 139 | 8.0 | 20.9 | 0.00 | 0.00 | 0.00 | 29 | 1006.9 |
| 20260506201112 | 18 | 146 | 6.4 | 20.9 | 0.00 | 0.00 | 0.00 | 30 | 1007.0 |
| 20260506200117 | 17 | 183 | 6.4 | 17.7 | 0.00 | 0.00 | 0.00 | 30 | 1007.1 |
| 20260506195613 | 17 | 148 | 8.0 | 20.9 | 0.00 | 0.00 | 0.00 | 30 | 1007.3 |
| 20260506195111 | 17 | 111 | 6.4 | 20.9 | 0.00 | 0.00 | 0.00 | 30 | 1007.2 |
| 20260506194620 | 17 | 147 | 6.4 | 17.7 | 0.00 | 0.00 | 0.00 | 30 | 1007.2 |
| 20260506194108 | 17 | 144 | 8.0 | 17.7 | 0.00 | 0.00 | 0.00 | 30 | 1007.5 |
| 20260506193608 | 17 | 227 | 8.0 | 20.9 | 0.00 | 0.00 | 0.00 | 29 | 1006.8 |
| 20260506193113 | 16 | 155 | 8.0 | 20.9 | 0.00 | 0.00 | 0.00 | 30 | 1007.2 |
| 20260506192608 | 16 | 96 | 8.0 | 22.5 | 0.00 | 0.00 | 0.00 | 32 | 1007.5 |
| 20260506192111 | 16 | 136 | 9.7 | 27.4 | 0.00 | 0.00 | 0.00 | 32 | 1007.6 |
| 20260506191107 | 16 | 102 | 9.7 | 22.5 | 0.00 | 0.00 | 0.00 | 32 | 1007.6 |
| 20260506190619 | 16 | 135 | 9.7 | 22.5 | 0.00 | 0.00 | 0.00 | 32 | 1007.9 |
| 20260506190118 | 16 | 152 | 9.7 | 22.5 | 0.00 | 0.00 | 0.00 | 32 | 1008.4 |
| 20260506185608 | 16 | 163 | 9.7 | 19.3 | 0.00 | 0.00 | 0.00 | 33 | 1007.5 |
| 20260506185109 | 16 | 108 | 9.7 | 27.4 | 0.00 | 0.00 | 0.00 | 32 | 1007.3 |
| 20260506184609 | 15 | 101 | 9.7 | 27.4 | 0.00 | 0.00 | 0.00 | 32 | 1007.9 |
| 20260506184106 | 15 | 116 | 9.7 | 22.5 | 0.00 | 0.00 | 0.00 | 34 | 1007.6 |
| 20260506183607 | 15 | 148 | 11.3 | 22.5 | 0.00 | 0.00 | 0.00 | 33 | 1007.9 |
| 20260506182606 | 15 | 133 | 9.7 | 20.9 | 0.00 | 0.00 | 0.00 | 33 | 1007.7 |
| 20260506181107 | 14 | 148 | 9.7 | 20.9 | 0.00 | 0.00 | 0.00 | 34 | 1008.1 |
| 20260506180606 | 14 | 149 | 9.7 | 20.9 | 0.00 | 0.00 | 0.00 | 34 | 1008.2 |
| 20260506180107 | 14 | 156 | 9.7 | 22.5 | 0.00 | 0.00 | 0.00 | 34 | 1008.0 |
| 20260506175606 | 14 | 142 | 11.3 | 24.1 | 0.00 | 0.00 | 0.00 | 34 | 1008.0 |
| 20260506174609 | 13 | 197 | 9.7 | 27.4 | 0.00 | 0.00 | 0.00 | 35 | 1008.3 |
| 20260506174104 | 13 | 174 | 9.7 | 27.4 | 0.00 | 0.00 | 0.00 | 35 | 1008.5 |
| 20260506173604 | 13 | 192 | 9.7 | 27.4 | 0.00 | 0.00 | 0.00 | 35 | 1008.4 |
| 20260506173104 | 13 | 156 | 11.3 | 27.4 | 0.00 | 0.00 | 0.00 | 35 | 1008.8 |
| 20260506172106 | 13 | 155 | 12.9 | 25.7 | 0.00 | 0.00 | 0.00 | 36 | 1008.8 |
| 20260506171104 | 13 | 141 | 11.3 | 27.4 | 0.00 | 0.00 | 0.00 | 36 | 1009.0 |
| 20260506170604 | 13 | 137 | 11.3 | 25.7 | 0.00 | 0.00 | 0.00 | 36 | 1008.8 |
| 20260506170100 | 12 | 131 | 11.3 | 25.7 | 0.00 | 0.00 | 0.00 | 36 | 1009.0 |
| 20260506165602 | 12 | 140 | 9.7 | 22.5 | 0.00 | 0.00 | 0.00 | 37 | 1009.0 |
| 20260506165103 | 12 | 174 | 9.7 | 22.5 | 0.00 | 0.00 | 0.00 | 37 | 1008.8 |
| 20260506163600 | 11 | 135 | 11.3 | 25.7 | 0.00 | 0.00 | 0.00 | 38 | 1009.1 |
| 20260506163102 | 11 | 133 | 9.7 | 25.7 | 0.00 | 0.00 | 0.00 | 38 | 1009.1 |
| 20260506162101 | 11 | 129 | 9.7 | 20.9 | 0.00 | 0.00 | 0.00 | 39 | 1009.2 |
| 20260506161600 | 10 | 145 | 9.7 | 20.9 | 0.00 | 0.00 | 0.00 | 39 | 1009.3 |
| 20260506161101 | 10 | 173 | 9.7 | 20.9 | 0.00 | 0.00 | 0.00 | 39 | 1009.4 |
| 20260506160601 | 10 | 144 | 9.7 | 20.9 | 0.00 | 0.00 | 0.00 | 40 | 1009.6 |
| 20260506160112 | 10 | 162 | 9.7 | 20.9 | 0.00 | 0.00 | 0.00 | 40 | 1009.6 |
| 20260506155602 | 10 | 183 | 11.3 | 20.9 | 0.00 | 0.00 | 0.00 | 41 | 1009.8 |
| 20260506155100 | 9 | 136 | 9.7 | 19.3 | 0.00 | 0.00 | 0.00 | 41 | 1009.8 |
| 20260506154559 | 9 | 154 | 8.0 | 20.9 | 0.00 | 0.00 | 0.00 | 41 | 1009.8 |
| 20260506154100 | 9 | 182 | 8.0 | 20.9 | 0.00 | 0.00 | 0.00 | 42 | 1009.8 |
| 20260506153600 | 8 | 152 | 8.0 | 25.7 | 0.00 | 0.00 | 0.00 | 42 | 1009.9 |
| 20260506153103 | 8 | 128 | 9.7 | 25.7 | 0.00 | 0.00 | 0.00 | 42 | 1010.0 |
| 20260506152600 | 8 | 134 | 9.7 | 24.1 | 0.00 | 0.00 | 0.00 | 43 | 1010.1 |
| 20260506152101 | 8 | 143 | 8.0 | 22.5 | 0.00 | 0.00 | 0.00 | 42 | 1010.1 |
| 20260506151100 | 8 | 139 | 8.0 | 19.3 | 0.00 | 0.00 | 0.00 | 42 | 1010.1 |
| 20260506150111 | 8 | 141 | 8.0 | 19.3 | 0.00 | 0.00 | 0.00 | 42 | 1010.3 |
| 20260506145557 | 7 | 186 | 9.7 | 19.3 | 0.00 | 0.00 | 0.00 | 43 | 1010.6 |
| 20260506145059 | 7 | 167 | 9.7 | 20.9 | 0.00 | 0.00 | 0.00 | 43 | 1010.6 |
| 20260506144558 | 7 | 193 | 8.0 | 20.9 | 0.00 | 0.00 | 0.00 | 43 | 1010.6 |
| 20260506144059 | 7 | 217 | 9.7 | 20.9 | 0.00 | 0.00 | 0.00 | 44 | 1010.7 |
| 20260506143558 | 6 | 178 | 9.7 | 20.9 | 0.00 | 0.00 | 0.00 | 44 | 1010.9 |
| 20260506143058 | 6 | 183 | 9.7 | 19.3 | 0.00 | 0.00 | 0.00 | 45 | 1010.9 |